STARLINK-32574, 61954

Orbit data source: Space-Track

STARLINK-32574, 61954 is a payload satellite owned by SpaceX/Seattle (US) in LEO that was launched on Thu, 14 Nov 2024 UTC via an FALCON 9 launch vehicle from the Air Force Western Test Range (AFWTR). Payload-class satellites include a variety of spacecraft equipped with specific instruments for various scientific and technological missions. These include communications satellites like Starlink; space stations such as the ISS; scientific satellites like the Hubble; Earth observation satellites from companies like Planet Labs, Umbra, and HawkEye 360; GPS; miniature CubeSats for education and research; and military/defense satellites.

Loading next visibility...
Identifier
61954, 2024-209R
Orbit
LEO
Country
Flag of USUS
Related business
Manufacturer
SpaceX/Seattle
Mission
Operational Commercial Communications
Bus & Motor
STARLINK V2M, Unknown motor
Mass
730 kg wet, ~700 kg dry
Launch date (UTC)
2024-11-14 (2 years ago)
Launch vehicle
FALCON 9
Launch site
Air Force Western Test Range (AFWTR)
Object type
Payload
Rocket body
Debris
Shape & HBR
Box + 2 Pan, 17.7 m
Radar Cross Section
33.884 m², Large (>1 m²)

Expand to show TLE details & history
Last TLE update: 16 hours ago

TLE from 16 hours ago
0 STARLINK-32574
1 61954U 24209R   26171.20273990  .00062311  00000-0  11188-2 0  9995
2 61954  53.1603  21.1477 0000848  89.3317 270.7790 15.49327658 90683
Epoch: 2026-06-20T04:51Z
TLE epoch observation values (Epoch: 2026-06-20T04:51:56.727Z)
Latitude
0.00004°
Longitude
39.74063°
Altitude
419.591 km
Speed
7.661 km/s
True Right ascension
01h 24m 35s
True Declination
0° 00' 00"
Sunlit
Object was in daylight at epoch
Visualization orbit readout
Latitude
Unknown
Longitude
Unknown
Altitude
Unknown
Speed
Unknown
Apparent Right ascension
Unknown
Apparent Declination
Unknown
Sunlit
N/A
Visualization observer readout
Local Sidereal Time
07:18:19
Azimuth
Unknown
Elevation
Unknown
Doppler factor
Unknown
Orbital elements
Apogee altitude
419.527 km
Perigee altitude
418.374 km
Semi-major axis
6,797.087 km
Eccentricity
0.00008
Inclination
53.1603°
RAAN
21.1477°
Arg. of periapsis
89.3317°
True anomaly
270.76928°
Mean anomaly
270.779°
Eccentric anomaly
270.77414°
Mean motion
3.8731 °/min
Orbital period
92.95 mins
BSTAR
0.0011188
Loading maneuver chart data...
Computing Atmospheric mass density...
Loading historical data...
Loading historical data...
Loading historical data...
Loading historical data...
Loading historical data...
Loading historical data...
Loading historical data...

Documentation

Showing up to 5 results
|